Location: Kumla
(59.1265°N, 15.1401°E)
Time: 19:12:27
(UTC+01:00)

A-11 Canister half - Pass Details

Date: 11 December 2023
Orbit: 1526 x 1682 km, 47.3° (Epoch: 21 February)

Event Time Altitude Azimuth Distance (km) Brightness Sun altitude
Rises 21:04:21 0° 263° (W) 4,936 12.2 -43.3°
Reaches altitude 10° 21:07:46 10° 256° (WSW) 3,946 11.5 -43.7°
Enters shadow 21:13:11 31° 232° (SW) 2,641 10.2 -44.3°
